Location: Newark
(39.5667°N, 8.9833°E)
Time: 22:32:03
(UTC+00:00)

Transit 2A - Pass Details

Date: 29 October 2019
Orbit: 601 x 957 km, 66.7° (Epoch: 21 November)

Event Time Altitude Azimuth Distance (km) Brightness Sun altitude
Rises 16:54:07 0° 226° (SW) 3,340 10.4 -6.0°
Reaches altitude 10° 16:56:47 10° 233° (SW) 2,351 9.8 -6.5°
Maximum altitude 17:01:51 42° 303° (WNW) 1,051 7.2 -7.4°
Drops below altitude 10° 17:06:28 10° 15° (NNE) 2,144 8.1 -8.3°
Sets 17:08:49 0° 23° (NNE) 3,013 8.8 -8.8°
